FENGYUN 1C DEB

Satellite information

Favourite Embed

Satellite Type and Status

DEBRISIN ORBIT

Key statistics

Satellite FENGYUN 1C DEB at a glance.

Uptime

9617

Days in orbit

Revolutions

≈ 14.4

Per day

Orbit

SSO

Sun Synchronous Orbit

Inclination

98.8

Latest

Satellite identification and parameters

Extended collection of information and parameters for FENGYUN 1C DEB.

Object identification

Identified? True

Debris? True

Object name: FENGYUN 1C DEB

International designator: 1999-025AET

Object number (NORAD): 30432

Object ID (CCSDS): 30432

Country: PEOPLES REPUBLIC OF CHINA (PRC)

Current information (Y/N): Y

RCS size: SMALL

Orbital parameters

Period: 99.99 minutes

Inclination: 98.8391 deg

SMA: 7136.167 km

Apoapsis: 816.649 km

Periapsis: 699.414 km

RAAN: 145.3895 deg

Eccentricy: 0.00821416

Argument of periapsis: 266.6343 deg

Mean anomaly: 92.5445 deg

Mean motion: 14.4014184 rev/day

Mean motion (dot): 0.0000239 rev/day2

B* drag term: 0.00074206558 1/REarth

Two-line elements (TLE)

Creation date: Sept. 7, 2025, 3:09 a.m.

Reference frame: TEME

Reference center: EARTH

Epoch: Sept. 6, 2025, 3:52 p.m. UTC

TLE line 0: 0 FENGYUN 1C DEB

TLE line 1: 1 30432U 99025AET 25249.66136001 .00002390 00000-0 74207-3 0 9999

TLE line 2: 2 30432 98.8391 145.3895 0082142 266.6343 92.5445 14.40141840973379

Live tracking on map

Real-time ground track for satellite FENGYUN 1C DEB.

In-orbit conjunctions

A list of the most updated potential collisions computed for object FENGYUN 1C DEB.

Target Orbit TCA Probability of collision Miss distance Type
COSMOS 2251 DEB LEO 2025-04-18 19:28:03 0.0002751938 27.0 (m) DEBRIS
SCOUT X-4 DEB LEO 2025-02-22 23:40:14 0.0001662714 383.0 (m) DEBRIS
NOAA 16 DEB SSO 2024-09-28 22:13:37 0.0004311143 102.0 (m) DEBRIS

Associated space launch

Chinese polar orbiting meteorological satellite

FENGYUN 1C DEB was lifted into orbit during the mission ‘Long March 4B | Feng Yun 1C’, on board a Long March 4B space rocket.

The launch took place on May 10, 1999, 1:33 a.m. from Launch Complex 7.

For more information about the launch, click the button.

Launch to space Long March 4B | Feng Yun 1C
Long March 4B | Feng Yun 1C

Agency: N/A

Status: Launch Successful

Launch date: May 10, 1999, 1:33 a.m. UTC

Rocket: Long March 4B

Launch pad: Launch Complex 7

Location: Taiyuan Satellite Launch Center, People's Republic of China

...

Latest news about this satellite

There are no fresh news available about this satellite. Check back as we update our databases every day.


Newsletter sign-up

Weekly statistics, charts and insights to help you stay on top of the space industry.